User: anonymous   Login
Location: ??????
(55.0357°N, 38.6195°E)
Time: 23:28:28
(UTC+00:00)
Language:

ADEOS II - Orbit

View from above orbital plane
View from above orbital plane
View from above satellite
View from above satellite

Ground track
Ground track

The orbit data is extracted from the following two-line orbital elements,

1 27597U 02056A   24175.48214570  .00000387  00000-0  17261-3 0  9991
2 27597  98.6920 122.1427 0001889  57.1484 302.9879 14.28383817121153
Epoch (UTC): 23 June 2024 11:34:17
Eccentricity: 0.0001889
inclination: 98.6920°
perigee height: 796 km
apogee height: 798 km
right ascension of ascending node: 122.1427°
argument of perigee: 57.1484°
revolutions per day: 14.28383817
mean anomaly at epoch: 302.9879°
orbit number at epoch: 12115

The dashed part of the orbit path shows where the satellite is in the earth's shadow,  

DLR